Location: Molino di Ancona
(43.6167°N, 13.3667°E)
Time: 09:24:48
(UTC+00:00)

Cosmos 1428 Rocket - Pass Details

Date: 15 December 2019
Orbit: 948 x 988 km, 82.9° (Epoch: 24 January)

Event Time Altitude Azimuth Distance (km) Brightness Sun altitude
Exits shadow 04:18:00 11° 348° (NNW) 2,715 6.6 -23.4°
Maximum altitude 04:24:11 71° 266° (W) 1,044 4.4 -22.3°
Drops below altitude 10° 04:30:25 10° 184° (S) 2,732 6.9 -21.2°
Sets 04:32:56 0° 182° (S) 3,672 7.7 -20.8°
